Time,B instrument,Bx,By,Bz,sigma B,Ion instrument,Status,Tp_par,Tp_perp,carrot,r_sun,clat,clong,earth_he_angle,n_p,vp_x,vp_y,vp_z,vth_p_par,vth_p_perp
1980-06-10 00:00:37,1,-26.1083,-24.0667,-30.5833,0.814069,1,1,146415.0,111765.0,1695,0.40203983,6.9031725,50.558533,69.437439,146.296,336.323,14.878,-25.3026,49.1644,42.9548
1980-06-10 00:01:17,1,-29.3455,-24.8364,-29.3273,1.60495,1,1,164154.0,111803.0,1695,0.40204835,6.9032803,50.552948,69.439667,138.582,336.184,13.5527,-25.8178,52.0575,42.9621
1980-06-10 00:01:58,1,-23.4167,-21.7167,-36.15,1.46183,1,1,199003.0,116409.0,1695,0.40204841,6.9032803,50.545135,69.439667,151.66,325.852,8.18947,-20.0987,57.3175,43.838
1980-06-10 00:02:38,1,-26.0083,-23.8583,-33.8167,2.51752,1,1,150860.0,120823.0,1695,0.40205693,6.903388,50.543488,69.44191,133.839,331.454,10.0071,-19.5579,49.9051,44.6615
1980-06-10 00:03:19,1,-27.7727,-26.7636,-22.7455,7.38053,1,1,137876.0,127999.0,1695,0.40206552,6.9034958,50.537903,69.444153,136.863,344.756,20.4828,-22.7807,47.7092,45.9687
1980-06-10 00:03:59,1,-28.9167,-27.65,-20.6167,7.40565,1,1,127880.0,122661.0,1695,0.40206552,6.9034958,50.533997,69.444153,145.116,341.968,18.3489,-11.2916,45.9471,44.9999
1980-06-10 00:04:40,1,-25.3538,-24.9692,-31.4615,0.669717,1,1,132932.0,123529.0,1695,0.4020741,6.9036036,50.528412,69.446381,129.847,342.076,16.9509,-23.8923,46.8459,45.1588
1980-06-10 00:05:20,1,-25.7667,-24.375,-32.1833,0.89563,1,1,129371.0,119103.0,1695,0.40208268,6.9037123,50.522858,69.448624,128.792,340.467,17.969,-23.4937,46.2143,44.3424
1980-06-10 00:06:01,1,-27.0154,-24.1538,-31.7538,0.845874,1,1,130283.0,121907.0,1695,0.40209126,6.90382,50.521179,69.450867,129.878,338.407,19.4303,-27.4163,46.377,44.8614
1980-06-10 00:06:41,1,-27.6182,-21.3364,-33.1091,1.96633,1,1,136814.0,117209.0,1695,0.40209126,6.90382,50.513367,69.450867,126.723,342.461,15.3167,-25.169,47.5251,43.9883
1980-06-10 00:07:22,1,-26.9,-20.6923,-34.1846,3.22259,1,1,125240.0,118331.0,1695,0.40209985,6.9039278,50.511688,69.453094,129.378,336.951,11.8078,-17.427,45.4704,44.1984
1980-06-10 00:08:02,1,-30.7917,-19.4417,-30.55,4.58047,1,1,131558.0,120223.0,1695,0.40210843,6.9040356,50.506134,69.455338,127.296,349.46,11.1674,-24.0511,46.6034,44.5504
1980-06-10 00:08:43,-1,nan,nan,nan,nan,1,4,nan,nan,1695,0.40210843,6.9040356,50.502228,69.455338,nan,nan,nan,nan,nan,nan
1980-06-10 00:09:23,1,-28.5167,-20.8833,-32.9,0.345607,1,1,147030.0,119277.0,1695,0.40211701,6.9041433,50.496643,69.457581,138.678,336.016,8.83062,-22.1338,49.2675,44.3747
1980-06-10 00:10:04,1,-28.4846,-21.2923,-32.7231,0.637859,1,1,142291.0,119362.0,1695,0.4021256,6.9042521,50.491089,69.459824,133.836,337.047,8.53468,-20.9706,48.4671,44.3906
1980-06-10 00:10:44,1,-26.525,-21.6917,-33.2667,0.504838,1,1,154793.0,124870.0,1695,0.4021256,6.9042521,50.487183,69.459824,140.069,338.713,9.42657,-19.1976,50.5515,45.4032
1980-06-10 00:11:25,1,-27.2846,-21.6,-33.3077,0.559268,1,1,158429.0,127312.0,1695,0.40213418,6.9043598,50.481598,69.462051,140.38,340.038,8.74134,-17.626,51.1417,45.8451
1980-06-10 00:12:05,1,-27.325,-21.0083,-33.5,0.582499,1,1,163733.0,122757.0,1695,0.40214276,6.9044676,50.479919,69.464294,139.627,340.163,11.2291,-18.5311,51.9907,45.0175
1980-06-10 00:12:46,1,-27.5077,-21.2154,-33.0769,0.552563,1,1,154435.0,122819.0,1695,0.40214276,6.9044676,50.472107,69.464294,139.62,339.657,12.0736,-18.6047,50.4929,45.0288
1980-06-10 00:13:26,1,-27.4083,-22.15,-32.2333,1.17494,1,1,143242.0,122489.0,1695,0.40215129,6.9045753,50.466553,69.466537,134.319,344.256,10.029,-19.0446,48.6288,44.9682
1980-06-10 00:14:07,1,-18.6583,-24.1,-36.3833,5.2194,1,1,167252.0,120489.0,1695,0.40215987,6.9046841,50.464874,69.468765,135.019,348.999,8.00311,-21.163,52.5464,44.5997
1980-06-10 00:14:47,1,-22.5583,-21.375,-32.95,9.75236,1,1,142817.0,128791.0,1695,0.40215987,6.9046841,50.457062,69.468765,133.16,338.967,12.1379,-17.8418,48.5566,46.1106
1980-06-10 00:15:28,1,-24.0615,16.8308,-33.0538,2.6395,1,1,164557.0,123131.0,1695,0.40216845,6.9047918,50.455383,69.471008,163.117,349.566,47.7319,-1.35739,52.1214,45.0859
1980-06-10 00:16:08,1,-26.2333,-8.725,-32.3167,13.5273,1,1,137897.0,127379.0,1695,0.40217704,6.9048996,50.449829,69.473251,145.378,343.981,39.7048,-8.45373,47.7129,45.8571
1980-06-10 00:16:49,1,-22.05,-21.3667,-32.05,2.2885,1,1,147488.0,126519.0,1695,0.40217704,6.9048996,50.442017,69.473251,152.625,344.717,9.54014,-8.49345,49.3441,45.7021
1980-06-10 00:17:29,1,-22.4417,-26.8083,-30.45,1.40025,1,1,128942.0,120852.0,1695,0.40218562,6.9050074,50.440338,69.475479,139.994,352.395,21.7128,-2.93113,46.1375,44.6668
1980-06-10 00:18:10,-1,nan,nan,nan,nan,1,4,nan,nan,1695,0.4021942,6.9051151,50.434753,69.477722,nan,nan,nan,nan,nan,nan
1980-06-10 00:18:50,1,-12.5615,-39.7923,-19.1769,1.94902,1,1,122144.0,105089.0,1695,0.4021942,6.9051151,50.430847,69.477722,119.869,341.178,38.8441,-18.898,44.9049,41.652
1980-06-10 00:19:31,1,-15.9769,-32.5538,-27.9769,3.94772,1,1,117583.0,112934.0,1695,0.40220279,6.9052238,50.425293,69.479965,121.103,342.812,34.258,-11.9091,44.0585,43.1787
1980-06-10 00:20:11,1,-18.7167,-27.0833,-31.7333,1.89429,1,1,120388.0,119829.0,1695,0.40221137,6.9053316,50.423615,69.482208,135.072,347.129,28.4106,-3.65962,44.5809,44.4773
1980-06-10 00:20:52,1,-18.8692,-28.8154,-29.7077,2.60877,1,1,116436.0,110498.0,1695,0.40221137,6.9053316,50.415802,69.482208,116.763,339.837,32.6439,-5.74612,43.8431,42.7106
1980-06-10 00:21:32,1,-20.5182,-27.4091,-31.8182,2.59513,1,1,104600.0,112216.0,1695,0.40221995,6.9054394,50.410217,69.484436,118.517,347.556,26.1766,-7.77298,41.555,43.0413
1980-06-10 00:22:13,1,-18.4538,-30.8385,-30.5154,0.429669,1,1,106927.0,110660.0,1695,0.40222853,6.9055471,50.408569,69.486679,120.328,344.806,30.9098,-10.6919,42.0147,42.7418
1980-06-10 00:22:53,1,-16.4833,-30.3417,-31.2667,0.970073,1,1,110042.0,114322.0,1695,0.40222853,6.9055471,50.400757,69.486679,124.352,342.833,30.4824,-7.07995,42.6223,43.4433
1980-06-10 00:23:34,1,-17.8923,-26.0846,-33.2846,3.46857,1,1,112082.0,115137.0,1695,0.40223712,6.9056559,50.399078,69.488922,122.823,345.224,24.0839,-3.71602,43.0156,43.5979
1980-06-10 00:24:14,1,-23.8667,-26.075,-30.9167,2.38827,1,1,99353.8,108816.0,1695,0.4022457,6.9057636,50.393494,69.49115,111.111,349.735,22.8396,-8.59741,40.4996,42.3842
1980-06-10 00:24:55,1,-23.5462,-27.4538,-30.2462,1.63559,1,1,107785.0,114338.0,1695,0.4022457,6.9057636,50.385681,69.49115,111.129,346.655,23.5962,-7.1668,42.183,43.4463
1980-06-10 00:25:35,1,-24.5083,-25.575,-30.8167,1.41858,1,1,102022.0,118495.0,1695,0.40225428,6.9058714,50.384033,69.493393,117.348,349.139,24.4788,-7.17773,41.0397,44.229
1980-06-10 00:26:16,1,-25.0417,-24.6917,-31.0167,1.0155,1,1,104096.0,116096.0,1695,0.40226281,6.9059792,50.378448,69.495636,116.478,349.13,27.7392,-7.77105,41.4549,43.7791
1980-06-10 00:26:56,1,-24.7,-22.5667,-32.8333,0.554777,1,1,108381.0,116187.0,1695,0.40226281,6.9059792,50.374542,69.495636,119.137,349.731,25.9489,-4.82546,42.2995,43.7962
1980-06-10 00:27:37,1,-24.4917,-23.4333,-32.2833,2.68441,1,1,103285.0,119776.0,1695,0.40227139,6.9060869,50.368958,69.497864,120.233,347.488,27.5139,-6.90233,41.293,44.4676
1980-06-10 00:28:17,1,-28.3083,-17.6417,-34.55,1.67701,1,1,106236.0,114673.0,1695,0.40227997,6.9061956,50.363403,69.500107,118.166,351.705,23.7643,-3.55385,41.8787,43.51
1980-06-10 00:28:58,1,-28.3333,-17.9,-34.4,1.21129,1,1,95746.1,121201.0,1695,0.40227997,6.9061956,50.359497,69.500107,113.506,348.055,24.0374,-5.88082,39.7574,44.7313
1980-06-10 00:29:38,1,-27.8077,-17.7692,-33.7692,1.16238,1,1,103803.0,110419.0,1695,0.40228856,6.9063034,50.353912,69.50235,119.78,347.975,31.8084,-3.4081,41.3963,42.6953
1980-06-10 00:30:19,1,-19.5,-28.6,-30.4231,5.22643,1,1,100758.0,119618.0,1695,0.40229714,6.9064112,50.352264,69.504593,120.854,339.833,38.8046,-7.52656,40.7848,44.4382
1980-06-10 00:30:59,1,-17.1667,-32.025,-26.7333,3.30978,1,1,120168.0,122274.0,1695,0.40229714,6.9064112,50.344452,69.504593,127.939,338.321,49.6926,-12.5505,44.5402,44.9287
1980-06-10 00:31:40,1,-15.6692,-30.8385,-28.2846,0.877732,1,1,139205.0,121005.0,1695,0.40230572,6.9065189,50.342773,69.506821,147.189,338.503,55.5599,-6.70973,47.9387,44.6951
1980-06-10 00:32:20,1,-16.3417,-26.7333,-33.225,1.5604,1,1,115034.0,117894.0,1695,0.40231431,6.9066267,50.337189,69.509064,127.504,340.901,45.4353,-6.15627,43.5783,44.1169
1980-06-10 00:33:01,1,-15.1385,-29.4231,-30.4538,1.33837,1,1,132435.0,118879.0,1695,0.40232289,6.9067354,50.331635,69.511307,146.358,344.355,50.6144,-0.190297,46.7584,44.3007
1980-06-10 00:33:41,1,-17.025,-30.15,-28.15,1.34915,1,1,127210.0,103995.0,1695,0.40232289,6.9067354,50.327728,69.511307,134.774,345.553,53.9943,-4.41168,45.8267,41.4347
1980-06-10 00:34:22,1,-13.8538,-35.2231,-23.9769,0.877867,1,1,139113.0,110481.0,1695,0.40233147,6.9068432,50.322144,69.513535,144.763,339.088,54.7387,-11.8162,47.9227,42.7073
1980-06-10 00:35:02,1,-14.4,-35.6545,-27.5182,1.28995,1,1,110860.0,100167.0,1695,0.40234005,6.906951,50.320465,69.515778,117.291,337.626,48.707,-9.69055,42.7805,40.6649
1980-06-10 00:35:43,1,-17.5538,-32.9692,-29.4077,1.21748,1,1,108965.0,109891.0,1695,0.40234005,6.906951,50.312653,69.515778,121.456,341.469,46.5923,-7.37838,42.4133,42.593
1980-06-10 00:36:23,1,-20.1091,-28.7182,-31.4818,1.57312,1,1,121276.0,101136.0,1695,0.40234864,6.9070587,50.307098,69.518021,138.496,345.259,47.178,0.916462,44.7451,40.8612
1980-06-10 00:37:04,1,-22.2538,-25.8462,-33.3692,4.42086,1,1,107163.0,108182.0,1695,0.40235716,6.9071674,50.30542,69.520248,140.983,341.978,51.5925,0.638074,42.061,42.2606
1980-06-10 00:37:44,1,-28.175,-15.1833,-35.0833,4.97256,1,1,134806.0,112569.0,1695,0.40235722,6.9071674,50.297607,69.520264,128.958,345.668,71.7016,6.74335,47.1751,43.1088
1980-06-10 00:38:25,1,-34.0923,16.4923,-28.5923,8.28561,1,1,88318.8,116157.0,1695,0.40236574,6.9072752,50.295929,69.522491,118.675,353.757,2.2737,-1.77972,38.1843,43.7906
1980-06-10 00:39:05,1,-34.4875,23.275,-27.1,2.25842,1,1,91081.2,113888.0,1695,0.40237433,6.907383,50.290375,69.524734,107.434,355.564,-1.42127,-9.40945,38.7768,43.3607
1980-06-10 00:39:46,1,-34.86,28.6,-18.78,1.15585,1,1,85142.7,113329.0,1695,0.40237433,6.907383,50.282562,69.524734,105.035,355.754,-4.68863,-7.48517,37.4914,43.2541
1980-06-10 00:40:26,1,-29.2083,32.2833,-16.9,6.46559,1,1,88014.6,110240.0,1695,0.40238291,6.9074907,50.280884,69.526978,116.15,357.808,-24.2208,-24.3459,38.1184,42.6606
1980-06-10 00:41:07,1,-38.4786,12.7357,-25.8571,2.7727,1,1,86199.2,107533.0,1695,0.40239149,6.9075985,50.275299,69.529205,122.298,368.462,13.9373,1.64944,37.7233,42.1336
1980-06-10 00:41:47,1,-43.5538,15.6308,-16.8385,1.43556,1,1,83942.6,112610.0,1695,0.40239149,6.9075985,50.271393,69.529205,114.997,372.731,13.8692,-5.6869,37.2262,43.1168
1980-06-10 00:42:28,1,-44.6,10.4333,-19.8333,1.03172,1,1,81814.8,113691.0,1695,0.40240008,6.9077072,50.265839,69.531448,111.297,369.679,21.8362,-4.37186,36.7514,43.3233
1980-06-10 00:43:08,-1,nan,nan,nan,nan,1,3,nan,nan,1695,0.40240866,6.907815,50.26416,69.533691,nan,371.874,24.2298,-6.44142,nan,nan
1980-06-10 00:43:49,-1,nan,nan,nan,nan,1,3,nan,nan,1695,0.40240866,6.907815,50.256348,69.533691,nan,373.066,28.7888,-7.72345,nan,nan
1980-06-10 00:44:29,-1,nan,nan,nan,nan,1,3,nan,nan,1695,0.40241724,6.9079227,50.250763,69.535919,nan,369.382,36.5199,-3.12654,nan,nan
1980-06-10 00:45:10,1,-43.15,-13.6,-21.0,0.287228,1,1,87143.1,108692.0,1695,0.40242583,6.9080305,50.249115,69.538162,106.768,366.403,40.96,-5.08443,37.9293,42.3601
1980-06-10 00:45:50,1,-39.5167,-15.4833,-23.0333,2.31301,1,1,101119.0,106028.0,1695,0.40242583,6.9080305,50.241302,69.538162,124.454,365.397,41.2148,3.90984,40.8577,41.8377
1980-06-10 00:46:31,1,-38.1857,-19.8357,-21.9429,3.81804,1,1,84116.3,107081.0,1695,0.40243441,6.9081392,50.239624,69.540405,107.333,366.161,47.0029,-5.74281,37.2647,42.045
1980-06-10 00:47:11,1,-37.7333,-15.475,-27.25,2.1463,1,1,95158.4,109198.0,1695,0.40244299,6.908247,50.234039,69.542633,122.79,369.746,51.8649,-4.85256,39.6352,42.4585
1980-06-10 00:47:52,1,-37.3786,-21.1143,-21.6286,3.77311,1,1,91907.1,103489.0,1695,0.40244299,6.908247,50.226257,69.542648,121.804,363.533,54.139,-3.20531,38.9522,41.3338
1980-06-10 00:48:32,1,-29.2833,-20.6,-29.65,2.82351,1,1,93302.0,106554.0,1695,0.40245157,6.9083548,50.224579,69.544876,133.749,356.196,51.766,11.5385,39.2467,41.9413
1980-06-10 00:49:13,1,-29.8929,-16.8929,-30.6571,2.85173,1,1,97992.0,114544.0,1695,0.4024601,6.9084625,50.218994,69.547119,141.623,357.095,53.9002,5.60305,40.221,43.4855
1980-06-10 00:49:53,1,-32.7583,-13.0,-31.6333,6.68291,1,1,94911.0,104589.0,1695,0.40246016,6.9084625,50.215088,69.547119,119.821,360.293,49.7485,6.96854,39.5837,41.5528
1980-06-10 00:50:34,1,-33.0571,-16.0214,-30.2,3.05985,1,1,98810.6,107950.0,1695,0.40246868,6.9085703,50.209534,69.549362,128.148,364.455,47.5149,3.59003,40.3887,42.2151
1980-06-10 00:51:14,1,-27.9417,-18.15,-35.1,1.23218,1,1,90813.3,111365.0,1695,0.40247726,6.908679,50.203949,69.55159,124.28,359.905,46.9557,10.6808,38.7198,42.8778
1980-06-10 00:51:55,1,-29.6286,-20.0214,-32.1143,1.63684,1,1,85726.5,112245.0,1695,0.40247726,6.908679,50.200043,69.55159,125.442,357.925,48.4044,10.7975,37.6197,43.0468
1980-06-10 00:52:35,1,-21.425,-29.8,-25.65,1.30552,1,1,126029.0,104835.0,1695,0.40248585,6.9087868,50.194458,69.553833,130.951,351.808,63.8763,-0.301429,45.6135,41.6017
1980-06-10 00:53:16,1,-22.9769,-35.1462,-16.8385,4.26746,1,1,161638.0,118919.0,1695,0.40249443,6.9088945,50.19281,69.556076,113.456,347.549,56.1642,-9.94951,51.657,44.3082
1980-06-10 00:53:56,1,-22.175,-29.9417,-26.5167,2.98452,1,1,149276.0,112197.0,1695,0.40249443,6.9088945,50.184998,69.556076,113.741,344.429,50.6761,-5.70745,49.6424,43.0377
1980-06-10 00:54:37,1,-25.4692,-27.8,-24.5231,2.33947,1,1,179407.0,111141.0,1695,0.40250301,6.9090023,50.183319,69.558304,125.488,353.278,55.9224,-8.65357,54.4224,42.8346
1980-06-10 00:55:17,1,-17.7083,-36.6583,-19.8333,4.81045,1,1,177797.0,109402.0,1695,0.4025116,6.9091101,50.177734,69.560547,128.941,346.466,61.1646,-12.1176,54.1777,42.4982
1980-06-10 00:55:58,1,-18.875,-36.4,-18.6167,3.87427,1,1,243009.0,118099.0,1695,0.4025116,6.909111,50.169922,69.560547,146.159,339.793,61.4705,-9.50302,63.3386,44.1551
1980-06-10 00:56:38,1,-25.2,-35.4385,-14.7154,4.71273,1,1,180515.0,117929.0,1695,0.40252018,6.9092188,50.168274,69.56279,138.43,346.493,64.1002,-17.1447,54.5902,44.1233
1980-06-10 00:57:19,1,-28.7,-33.6,-15.425,2.38087,1,1,172572.0,104319.0,1695,0.40252876,6.9093266,50.162689,69.565018,122.062,349.122,54.2934,-19.0316,53.3756,41.4991
1980-06-10 00:57:59,1,-18.3833,-41.9583,-17.3833,0.995092,1,1,152626.0,102619.0,1695,0.40252876,6.9093266,50.158783,69.565033,109.216,332.068,52.4364,-22.1428,50.1964,41.1596
1980-06-10 00:58:40,1,-18.8077,-41.5769,-16.6538,1.24173,1,1,217483.0,105887.0,1695,0.40253735,6.9094343,50.153198,69.567261,117.434,332.348,47.1552,-25.2864,59.9198,41.8099
1980-06-10 00:59:20,1,-17.8636,-39.6364,-19.3545,9.12279,1,1,156196.0,103935.0,1695,0.40254593,6.9095421,50.147644,69.569504,100.458,322.563,47.6896,-29.7904,50.78,41.4228
1980-06-10 01:00:01,1,-28.4909,-28.9364,-26.1091,0.681151,1,1,153079.0,97872.1,1695,0.40255451,6.9096508,50.145966,69.571747,119.865,347.467,54.6141,-4.799,50.2707,40.1964
1980-06-10 01:00:41,1,-30.76,-26.9,-28.36,0.718888,1,1,93830.0,95425.0,1695,0.40255451,6.9096508,50.138153,69.571747,98.9212,341.309,46.7884,-8.60386,39.3576,39.6907
1980-06-10 01:01:22,1,-28.2385,-29.5462,-27.3846,2.54377,1,1,106440.0,104654.0,1695,0.4025631,6.9097567,50.136475,69.573975,105.955,337.221,54.1861,-12.1406,41.919,41.5658
1980-06-10 01:02:02,1,-29.5167,-29.3,-26.8333,2.16724,1,1,118246.0,97518.3,1695,0.40257168,6.9098635,50.13089,69.576202,106.837,341.161,47.9236,-6.03396,44.1825,40.1237
1980-06-10 01:02:43,1,-23.8846,-33.3769,-23.2154,6.27079,1,1,137692.0,90292.3,1695,0.40257168,6.9098635,50.123077,69.576202,110.804,341.256,55.6702,-7.98053,47.6774,38.6085
1980-06-10 01:03:23,-1,nan,nan,nan,nan,1,3,nan,nan,1695,0.40258026,6.9099703,50.121399,69.57843,nan,338.334,46.1223,-12.6235,nan,nan
1980-06-10 01:04:04,-1,nan,nan,nan,nan,1,3,nan,nan,1695,0.40258884,6.9100771,50.115814,69.580658,nan,336.805,46.1683,-11.6893,nan,nan
1980-06-10 01:04:44,1,-27.5667,-27.3333,-29.5333,0.72111,1,1,72582.1,90071.4,1695,0.40258884,6.9100771,50.111908,69.580658,94.6026,336.258,50.3186,-9.58072,34.6157,38.5613
1980-06-10 01:05:25,1,-28.08,-28.82,-29.12,0.420476,1,1,117536.0,90373.3,1695,0.40259743,6.9101839,50.106354,69.582901,110.214,341.893,49.8856,-3.34677,44.0498,38.6258
1980-06-10 01:06:05,1,-28.05,-27.7333,-29.7,1.11043,1,1,113415.0,96272.1,1695,0.40260601,6.9102907,50.104675,69.585129,111.351,338.688,51.3879,-4.25119,43.2705,39.8665
1980-06-10 01:06:46,1,-27.7833,-26.4333,-30.1167,2.19545,1,1,120025.0,98361.1,1695,0.40260601,6.9102907,50.096863,69.585129,118.033,343.273,48.4412,-0.192907,44.5137,40.2967
1980-06-10 01:07:26,1,-20.625,-34.65,-24.8167,0.676336,1,1,115798.0,92778.1,1695,0.40261459,6.9103966,50.091278,69.587357,126.112,335.862,59.0016,-5.92569,43.7228,39.1364
1980-06-10 01:08:07,1,-21.9077,-32.0538,-24.5846,1.58644,1,1,124997.0,108201.0,1695,0.40262318,6.9105034,50.0896,69.589584,120.757,337.546,57.3912,-4.26318,45.4263,42.2643
1980-06-10 01:08:47,1,-27.3,-23.9273,-28.7,9.39062,1,1,143289.0,136948.0,1695,0.40262318,6.9105034,50.081787,69.589584,95.118,328.745,53.343,-14.0507,48.6368,47.5485
1980-06-10 01:09:28,1,-32.6769,-12.0923,-33.2769,0.850131,1,1,135772.0,132605.0,1695,0.40263176,6.9106102,50.080109,69.591827,86.7678,337.808,36.0722,-4.72091,47.3438,46.7884
1980-06-10 01:10:08,1,-31.55,-13.5083,-32.1833,7.71555,1,1,127068.0,114555.0,1695,0.40264034,6.910717,50.074524,69.594055,81.2492,338.428,46.2209,-6.51643,45.801,43.4876
1980-06-10 01:10:49,1,-23.2615,-32.1385,-25.0923,6.45416,1,1,142722.0,117629.0,1695,0.40264034,6.910717,50.066711,69.594055,81.4191,340.08,18.9668,3.9832,48.5403,44.0672
1980-06-10 01:11:29,1,-10.5083,-42.2833,-4.55,4.26005,1,1,121661.0,216552.0,1695,0.40264893,6.9108238,50.065033,69.596283,79.4511,322.077,11.0821,-27.9492,44.8161,59.7915
1980-06-10 01:12:10,1,-9.28333,-44.4583,-4.6,1.81167,1,1,144641.0,156662.0,1695,0.40265751,6.9109306,50.059448,69.598511,74.1107,321.164,12.4749,-24.9122,48.8657,50.8557
1980-06-10 01:12:50,1,-10.5364,-43.9636,-5.15455,0.950511,1,1,105861.0,155727.0,1695,0.40265751,6.9109306,50.055542,69.598511,66.9953,322.576,14.9877,-23.9735,41.8047,50.7036
1980-06-10 01:13:31,1,-7.40833,-44.925,-5.13333,0.989879,1,1,146711.0,167289.0,1695,0.40266609,6.9110374,50.049957,69.600739,73.8009,319.189,9.99308,-25.2516,49.214,52.5523
1980-06-10 01:14:11,1,-9.25455,-43.3182,-6.88182,0.717318,1,1,110959.0,164527.0,1695,0.40267467,6.9111433,50.044403,69.602982,65.9152,321.07,12.0357,-25.7921,42.7996,52.1167
1980-06-10 01:14:52,1,-11.0538,-42.6077,-9.05385,2.85757,1,1,144166.0,182984.0,1695,0.40267473,6.9111433,50.040497,69.602982,77.7454,329.021,7.5792,-20.0207,48.7853,54.9622
1980-06-10 01:15:32,1,-11.0273,-43.0727,-10.9,1.56448,1,1,118337.0,191883.0,1695,0.40268332,6.9112501,50.034912,69.605209,77.7381,324.212,9.3345,-17.8852,44.1996,56.2829
1980-06-10 01:16:13,1,-11.8,-42.5833,-10.55,1.14843,1,1,117521.0,207586.0,1695,0.4026919,6.9113569,50.033234,69.607437,85.7473,321.677,10.3744,-17.1132,44.047,58.5405
1980-06-10 01:16:53,1,-12.1182,-41.9182,-11.0091,1.81062,1,1,98417.4,205420.0,1695,0.4026919,6.9113569,50.025421,69.607437,78.751,325.734,8.03799,-13.0713,40.3082,58.2344
1980-06-10 01:17:34,1,-13.325,-40.3917,-9.83333,2.21469,1,1,138627.0,198143.0,1695,0.40270048,6.9114637,50.023743,69.609665,86.6816,326.268,3.93664,-15.2517,47.839,57.1935
1980-06-10 01:18:14,1,-15.4,-35.95,-14.3833,2.5061,1,1,133614.0,191544.0,1695,0.40270907,6.9115705,50.018158,69.611893,89.5992,326.371,1.09918,-11.9601,46.9661,56.2331
1980-06-10 01:18:55,1,-13.5308,-26.9154,-15.8923,2.88836,1,1,200727.0,237735.0,1695,0.40270907,6.9115705,50.010345,69.611908,96.2834,331.092,-13.6246,4.66728,57.5652,62.6476
1980-06-10 01:19:35,1,-14.8083,-22.5083,-18.0,2.15558,1,1,160614.0,214156.0,1695,0.40271765,6.9116774,50.008667,69.614136,79.4473,324.944,-13.1075,-2.82223,51.4932,59.4598
1980-06-10 01:20:16,1,-15.7,-20.3385,-21.5385,3.84149,1,1,231498.0,224743.0,1695,0.40272623,6.9117842,50.003082,69.616364,103.374,324.823,-15.8073,3.52314,61.8203,60.9118
1980-06-10 01:20:56,1,-16.6091,-12.8455,-25.8545,1.98823,1,1,234758.0,236056.0,1695,0.40272623,6.9117842,49.999176,69.616364,103.265,332.052,-38.2871,15.7411,62.2541,62.426
1980-06-10 01:21:37,-1,nan,nan,nan,nan,1,4,nan,nan,1695,0.40273482,6.91189,49.993591,69.618591,nan,nan,nan,nan,nan,nan
1980-06-10 01:22:17,1,-13.4083,13.9083,-30.5833,2.46568,1,1,538694.0,297072.0,1695,0.4027434,6.9119968,49.988007,69.620819,146.688,327.214,-12.5752,-7.04392,94.3037,70.0308
1980-06-10 01:22:58,-1,nan,nan,nan,nan,1,4,nan,nan,1695,0.4027434,6.9119968,49.9841,69.620819,nan,nan,nan,nan,nan,nan
1980-06-10 01:23:38,1,-18.1909,-9.17273,-32.4545,1.41287,1,1,197903.0,238337.0,1695,0.40275198,6.9121037,49.978546,69.623062,110.713,333.386,-6.9473,-9.89429,57.159,62.7269
1980-06-10 01:24:19,1,-17.8,-19.7923,-28.1077,1.84721,1,1,150170.0,201456.0,1695,0.40276057,6.9122105,49.976868,69.62529,97.0766,327.702,-16.505,-9.08438,49.7909,57.6697
1980-06-10 01:24:59,1,-17.0182,-26.9273,-23.8364,1.79402,1,1,148285.0,220959.0,1695,0.40276057,6.9122105,49.969055,69.62529,104.168,327.75,-14.501,-12.9362,49.4773,60.3967
1980-06-10 01:25:40,1,-17.0917,-25.2833,-27.1167,1.74839,1,1,145289.0,210356.0,1695,0.40276915,6.9123173,49.96347,69.627518,97.941,325.557,-12.5573,-9.10819,48.975,58.9299
1980-06-10 01:26:20,1,-23.3455,-13.6364,-32.6182,1.62562,1,1,298813.0,239527.0,1695,0.40277773,6.9124241,49.961792,69.629745,93.846,334.167,-10.5944,2.86476,70.2356,62.8832
1980-06-10 01:27:01,1,-26.9,-19.1583,-34.5333,1.71503,1,1,372265.0,218427.0,1695,0.40278631,6.9125299,49.956207,69.631973,92.0714,329.268,-15.5103,2.86834,78.3942,60.0497
1980-06-10 01:27:41,-1,nan,nan,nan,nan,1,4,nan,nan,1695,0.40278631,6.9125309,49.952301,69.631973,nan,nan,nan,nan,nan,nan
1980-06-10 01:28:22,1,-23.8385,-11.1308,-35.8462,0.836236,1,1,93582.1,153757.0,1695,0.4027949,6.9126368,49.946716,69.634216,94.1336,326.614,-20.2455,-12.8413,39.3056,50.382
1980-06-10 01:29:02,1,-24.6818,-11.3,-34.9818,0.955973,1,1,93267.9,184994.0,1695,0.40280348,6.9127436,49.945038,69.636444,101.288,325.888,-20.6711,-10.682,39.2395,55.2633
1980-06-10 01:30:22,1,-25.3083,-10.4583,-37.1833,1.03259,1,1,114655.0,229117.0,1695,0.40281212,6.9128504,49.931641,69.638672,69.5516,360.821,-45.9632,-8.9603,43.5065,61.5017
1980-06-10 01:31:03,1,-25.4222,-13.3333,-35.7778,0.778254,1,1,88646.1,148008.0,1695,0.40282071,6.9129572,49.929962,69.6409,66.6688,330.688,-21.5986,-10.3311,38.2549,49.4311
1980-06-10 01:31:43,1,-25.4333,-11.05,-36.2,0.71278,1,1,140413.0,256726.0,1695,0.40282071,6.9129572,49.92215,69.6409,74.9988,335.115,-18.4683,2.67711,48.1462,65.1017
1980-06-10 01:32:25,1,-23.6,-0.966667,-37.1333,1.7591,1,1,225545.0,310733.0,1695,0.40282929,6.913064,49.920471,69.643127,82.0167,343.799,-2.06964,9.124,61.0204,71.6229
1980-06-10 01:33:05,1,-26.1769,-5.04615,-39.4462,2.98854,1,1,236399.0,252183.0,1695,0.40283787,6.9131708,49.914917,69.64537,75.6651,333.408,-26.1822,4.18224,62.4714,64.5232
1980-06-10 01:33:46,-1,nan,nan,nan,nan,1,4,nan,nan,1695,0.40283787,6.9131708,49.907104,69.64537,nan,nan,nan,nan,nan,nan
1980-06-10 01:34:26,1,-23.675,4.85833,-37.5083,4.47922,1,1,213028.0,196304.0,1695,0.40284646,6.9132767,49.905426,69.647598,70.0421,334.302,-14.4629,-6.39242,59.303,56.9276
1980-06-10 01:35:07,1,-20.4231,19.0923,-36.9,1.47472,1,1,501400.0,209020.0,1695,0.40285504,6.9133835,49.899841,69.649826,128.427,336.276,-14.6935,7.05137,90.9808,58.7425
1980-06-10 01:35:47,1,-21.9636,18.1182,-37.7182,0.848431,1,1,183425.0,150241.0,1695,0.40285504,6.9133835,49.895935,69.649826,68.2548,334.285,-15.3083,-5.64428,55.0284,49.8026
1980-06-10 01:36:28,1,-23.0,16.4909,-36.4636,1.87312,1,1,309228.0,177306.0,1695,0.40286362,6.9134903,49.89035,69.652054,90.0159,339.16,-27.083,0.458061,71.4492,54.1027